Location: Blazny
(46.0612°N, 84.4033°W)
Time: 10:48:26
(UTC-04:00)

ARIANE 6 FM1 Upper Stage - Pass Details

Date: 20 September 2024
Orbit: 564 x 594 km, 62.0° (Epoch: 03 October)

Event Time Altitude Azimuth Distance (km) Brightness Sun altitude
Exits shadow 06:35:05 - 306° (NW) 2,625 5.7 -9.0°
Reaches altitude 10° 06:37:07 10° 294° (WNW) 1,934 4.9 -8.7°
Maximum altitude 06:40:33 23° 242° (WSW) 1,286 3.9 -8.1°
Drops below altitude 10° 06:43:59 10° 190° (S) 1,925 5.2 -7.5°
Sets 06:46:34 0° 176° (S) 2,820 6.2 -7.1°
